Location: Bartlow
(52.0833°N, 0.3167°E)
Time: 01:18:50
(UTC+00:00)

Cosmos 2266 Rocket - Pass Details

Date: 20 April 2024
Orbit: 934 x 1006 km, 82.9° (Epoch: 24 May)

Event Time Altitude Azimuth Distance (km) Brightness Sun altitude
Rises 04:04:57 0° 197° (SSW) 3,598 6.5 -7.1°
Reaches altitude 10° 04:07:28 10° 200° (SSW) 2,651 5.8 -6.8°
Maximum altitude 04:13:28 67° 283° (WNW) 1,014 4.0 -6.0°
Drops below altitude 10° 04:19:30 10° 6° (N) 2,659 6.8 -5.2°
Sets 04:22:01 0° 10° (N) 3,610 7.5 -4.8°
